QPF
0.00 0.00 0.00 0.00 0.00 0.00 0.00 0.00 0.00 0.00 0.00 0.00 0.00 0.00 0.02 0.03 0.02 0.01 0.00 0.01 0.01 0.00 0.00 0.00 0.00 0.00 0.01 0.02 0.03 0.04 0.03 0.03 0.02 0.03 0.04 0.05 0.06 0.06 0.05 0.06 0.05 0.04 0.03 0.04
0.00 0.00 0.00 0.00 0.00 0.00 0.00 0.00 0.00 0.00 0.00 0.00 0.00 0.00 0.01 0.02 0.01 0.01 0.00 0.00 0.00 0.00 0.00 0.00 0.00 0.00 0.01 0.02 0.04 0.05 0.03 0.03 0.02 0.03 0.05 0.05 0.08 0.07 0.06 0.07 0.08 0.05 0.05 0.05
0.00 0.00 0.00 0.00 0.00 0.00 0.00 0.00 0.00 0.00 0.00 0.00 0.00 0.00 0.01 0.02 0.01 0.00 0.00 0.00 0.00 0.00 0.00 0.00 0.00 0.00 0.00 0.01 0.03 0.04 0.03 0.03 0.02 0.04 0.06 0.06 0.08 0.09 0.10 0.08 0.09 0.06 0.06 0.06
0.00 0.00 0.00 0.00 0.00 0.00 0.00 0.00 0.00 0.00 0.00 0.00 0.00 0.01 0.01 0.02 0.02 0.01 0.00 0.00 0.00 0.00 0.00 0.00 0.00 0.00 0.00 0.01 0.02 0.03 0.03 0.02 0.04 0.05 0.08 0.09 0.09 0.10 0.10 0.09 0.09 0.07 0.06 0.07
0.00 0.00 0.00 0.00 0.00 0.00 0.00 0.00 0.00 0.00 0.00 0.00 0.00 0.02 0.02 0.01 0.01 0.01 0.00 0.00 0.00 0.00 0.00 0.00 0.00 0.00 0.00 0.01 0.01 0.02 0.03 0.03 0.06 0.09 0.10 0.09 0.11 0.13 0.11 0.10 0.11 0.09 0.08 0.07
0.00 0.00 0.00 0.00 0.00 0.00 0.00 0.00 0.00 0.00 0.00 0.00 0.00 0.01 0.01 0.01 0.01 0.01 0.00 0.00 0.00 0.00 0.00 0.00 0.00 0.00 0.00 0.01 0.01 0.02 0.04 0.05 0.07 0.07 0.08 0.08 0.10 0.12 0.13 0.14 0.15 0.12 0.10 0.09
0.00 0.00 0.00 0.00 0.00 0.00 0.00 0.00 0.00 0.00 0.00 0.00 0.00 0.01 0.01 0.00 0.01 0.01 0.00 0.00 0.00 0.00 0.00 0.00 0.00 0.00 0.01 0.02 0.02 0.02 0.04 0.04 0.06 0.07 0.08 0.09 0.09 0.12 0.13 0.13 0.15 0.14 0.12 0.12
0.00 0.00 0.00 0.00 0.00 0.00 0.00 0.00 0.00 0.01 0.01 0.00 0.00 0.00 0.00 0.00 0.00 0.00 0.00 0.00 0.00 0.00 0.00 0.00 0.00 0.01 0.00 0.01 0.01 0.02 0.04 0.05 0.08 0.09 0.08 0.09 0.10 0.12 0.12 0.11 0.11 0.12 0.10 0.07
0.00 0.00 0.00 0.00 0.00 0.00 0.00 0.00 0.00 0.00 0.01 0.01 0.00 0.00 0.00 0.00 0.00 0.00 0.01 0.01 0.01 0.00 0.00 0.00 0.00 0.00 0.00 0.00 0.01 0.02 0.04 0.06 0.05 0.06 0.07 0.10 0.09 0.10 0.11 0.10 0.09 0.09 0.08 0.05
0.00 0.00 0.00 0.00 0.00 0.00 0.00 0.00 0.00 0.00 0.01 0.02 0.01 0.00 0.00 0.00 0.00 0.00 0.00 0.01 0.01 0.01 0.00 0.00 0.00 0.00 0.01 0.01 0.01 0.01 0.02 0.02 0.02 0.03 0.05 0.09 0.11 0.11 0.11 0.12 0.09 0.09 0.09 0.09
0.00 0.00 0.00 0.00 0.00 0.00 0.00 0.00 0.00 0.00 0.00 0.01 0.02 0.01 0.01 0.01 0.00 0.00 0.00 0.01 0.01 0.01 0.00 0.01 0.01 0.01 0.01 0.01 0.01 0.02 0.02 0.02 0.02 0.03 0.04 0.07 0.08 0.10 0.11 0.11 0.10 0.10 0.10 0.10
0.00 0.00 0.00 0.00 0.00 0.00 0.00 0.00 0.00 0.00 0.01 0.00 0.01 0.01 0.01 0.02 0.00 0.00 0.00 0.00 0.00 0.00 0.01 0.02 0.03 0.01 0.00 0.01 0.01 0.02 0.02 0.03 0.04 0.04 0.04 0.05 0.08 0.10 0.10 0.11 0.10 0.09 0.09 0.09
0.00 0.00 0.00 0.00 0.00 0.00 0.00 0.00 0.00 0.00 0.00 0.00 0.01 0.01 0.00 0.01 0.01 0.00 0.00 0.00 0.00 0.00 0.00 0.01 0.02 0.01 0.00 0.01 0.01 0.03 0.03 0.05 0.05 0.04 0.04 0.05 0.09 0.10 0.11 0.12 0.11 0.09 0.08 0.09
0.00 0.00 0.00 0.00 0.00 0.00 0.00 0.00 0.00 0.00 0.00 0.00 0.00 0.00 0.00 0.01 0.01 0.01 0.00 0.00 0.00 0.00 0.00 0.00 0.01 0.01 0.02 0.02 0.03 0.03 0.03 0.03 0.03 0.05 0.05 0.06 0.09 0.10 0.11 0.14 0.13 0.10 0.10 0.09
0.00 0.00 0.00 0.00 0.00 0.00 0.00 0.00 0.00 0.00 0.00 0.00 0.00 0.01 0.01 0.02 0.03 0.02 0.00 0.00 0.00 0.00 0.00 0.00 0.01 0.02 0.02 0.03 0.05 0.06 0.04 0.03 0.03 0.04 0.05 0.05 0.06 0.08 0.09 0.10 0.11 0.10 0.10 0.07
0.00 0.00 0.00 0.00 0.00 0.00 0.00 0.00 0.00 0.00 0.00 0.00 0.00 0.02 0.01 0.01 0.01 0.01 0.00 0.00 0.01 0.00 0.01 0.01 0.03 0.03 0.03 0.04 0.04 0.04 0.07 0.05 0.03 0.03 0.04 0.04 0.06 0.08 0.09 0.11 0.11 0.11 0.09 0.09
0.00 0.00 0.00 0.00 0.00 0.00 0.00 0.00 0.00 0.00 0.00 0.00 0.01 0.02 0.02 0.03 0.01 0.01 0.00 0.01 0.01 0.01 0.03 0.04 0.05 0.04 0.03 0.03 0.03 0.02 0.03 0.04 0.03 0.03 0.04 0.03 0.05 0.05 0.06 0.09 0.11 0.12 0.11 0.10
0.00 0.00 0.00 0.00 0.00 0.00 0.00 0.00 0.00 0.00 0.00 0.00 0.02 0.02 0.01 0.02 0.01 0.01 0.00 0.00 0.01 0.03 0.04 0.05 0.05 0.03 0.02 0.01 0.01 0.02 0.02 0.02 0.03 0.02 0.02 0.01 0.02 0.02 0.04 0.07 0.10 0.11 0.14 0.14
0.00 0.00 0.00 0.00 0.01 0.00 0.00 0.00 0.00 0.00 0.00 0.00 0.01 0.01 0.01 0.00 0.00 0.01 0.01 0.01 0.01 0.01 0.02 0.02 0.02 0.02 0.02 0.01 0.01 0.02 0.02 0.01 0.01 0.01 0.01 0.02 0.01 0.02 0.04 0.06 0.09 0.10 0.09 0.12
0.01 0.01 0.00 0.00 0.01 0.02 0.01 0.00 0.00 0.00 0.01 0.00 0.00 0.00 0.01 0.00 0.03 0.04 0.02 0.02 0.02 0.01 0.01 0.01 0.01 0.01 0.01 0.01 0.01 0.01 0.01 0.01 0.01 0.02 0.03 0.03 0.03 0.03 0.04 0.05 0.07 0.09 0.08 0.07
0.01 0.01 0.00 0.00 0.01 0.02 0.01 0.00 0.01 0.01 0.03 0.01 0.00 0.01 0.00 0.01 0.02 0.04 0.05 0.03 0.02 0.01 0.01 0.01 0.00 0.00 0.01 0.01 0.01 0.02 0.02 0.02 0.02 0.03 0.03 0.03 0.04 0.05 0.06 0.05 0.05 0.05 0.07 0.08
0.02 0.01 0.01 0.01 0.03 0.05 0.02 0.01 0.02 0.03 0.01 0.00 0.00 0.00 0.00 0.01 0.01 0.02 0.03 0.03 0.02 0.02 0.02 0.01 0.01 0.01 0.01 0.01 0.02 0.03 0.03 0.03 0.03 0.04 0.05 0.05 0.06 0.08 0.08 0.06 0.04 0.04 0.06 0.06
0.01 0.01 0.01 0.03 0.06 0.04 0.03 0.03 0.02 0.00 0.00 0.00 0.01 0.00 0.00 0.01 0.01 0.02 0.01 0.01 0.01 0.02 0.02 0.02 0.01 0.02 0.02 0.03 0.03 0.03 0.03 0.03 0.03 0.04 0.06 0.06 0.06 0.08 0.09 0.08 0.06 0.06 0.06 0.06
0.02 0.01 0.01 0.04 0.06 0.03 0.03 0.04 0.01 0.00 0.00 0.01 0.02 0.01 0.00 0.01 0.01 0.02 0.01 0.01 0.02 0.03 0.03 0.04 0.03 0.03 0.03 0.03 0.03 0.04 0.03 0.03 0.03 0.04 0.06 0.07 0.07 0.07 0.07 0.07 0.07 0.07 0.06 0.05
0.03 0.03 0.04 0.08 0.08 0.05 0.03 0.02 0.01 0.00 0.00 0.01 0.01 0.01 0.00 0.01 0.01 0.01 0.01 0.01 0.02 0.04 0.04 0.04 0.04 0.03 0.03 0.02 0.03 0.04 0.04 0.04 0.05 0.06 0.06 0.06 0.06 0.05 0.05 0.05 0.05 0.05 0.05 0.05
0.06 0.04 0.05 0.09 0.06 0.05 0.03 0.01 0.00 0.00 0.00 0.00 0.00 0.01 0.01 0.01 0.01 0.01 0.01 0.02 0.03 0.04 0.04 0.05 0.04 0.03 0.03 0.03 0.02 0.03 0.04 0.05 0.06 0.05 0.04 0.04 0.04 0.04 0.03 0.03 0.02 0.02 0.02 0.02
MSLP
1009.26 1009.65 1009.84 1009.84 1009.72 1009.53 1009.33 1009.17 1009.06 1008.99 1008.94 1008.87 1008.77 1008.63 1008.46 1008.30 1008.19 1008.18 1008.29 1008.53 1008.90 1009.37 1009.89 1010.44 1010.97 1011.46 1011.92 1012.33 1012.73 1013.11 1013.49 1013.86 1014.22 1014.56 1014.86 1015.12 1015.33 1015.51 1015.64 1015.76 1015.87 1015.98 1016.10 1016.24
1009.45 1009.66 1009.70 1009.62 1009.49 1009.37 1009.31 1009.32 1009.40 1009.50 1009.56 1009.53 1009.39 1009.12 1008.77 1008.38 1008.04 1007.81 1007.75 1007.89 1008.21 1008.68 1009.26 1009.88 1010.49 1011.06 1011.58 1012.05 1012.48 1012.89 1013.30 1013.71 1014.11 1014.50 1014.86 1015.16 1015.40 1015.57 1015.69 1015.77 1015.83 1015.90 1015.98 1016.08
1009.43 1009.44 1009.34 1009.19 1009.08 1009.06 1009.17 1009.40 1009.70 1009.99 1010.17 1010.19 1010.00 1009.61 1009.06 1008.44 1007.86 1007.41 1007.17 1007.18 1007.44 1007.91 1008.52 1009.21 1009.91 1010.56 1011.14 1011.67 1012.14 1012.59 1013.04 1013.50 1013.96 1014.41 1014.81 1015.15 1015.41 1015.59 1015.69 1015.74 1015.76 1015.79 1015.84 1015.94
1009.22 1009.06 1008.83 1008.64 1008.58 1008.70 1009.01 1009.47 1010.00 1010.47 1010.78 1010.84 1010.60 1010.07 1009.32 1008.47 1007.64 1006.96 1006.54 1006.42 1006.61 1007.06 1007.70 1008.44 1009.21 1009.93 1010.58 1011.17 1011.70 1012.20 1012.71 1013.22 1013.74 1014.24 1014.70 1015.08 1015.36 1015.54 1015.63 1015.66 1015.66 1015.66 1015.70 1015.80
1008.89 1008.58 1008.27 1008.09 1008.10 1008.37 1008.88 1009.57 1010.31 1010.95 1011.36 1011.44 1011.14 1010.47 1009.54 1008.45 1007.39 1006.50 1005.90 1005.65 1005.75 1006.16 1006.81 1007.58 1008.39 1009.18 1009.89 1010.54 1011.13 1011.69 1012.26 1012.84 1013.42 1013.98 1014.49 1014.91 1015.21 1015.40 1015.49 1015.51 1015.49 1015.49 1015.53 1015.63
1008.49 1008.09 1007.76 1007.60 1007.72 1008.14 1008.84 1009.72 1010.62 1011.39 1011.87 1011.95 1011.58 1010.79 1009.68 1008.40 1007.13 1006.05 1005.28 1004.89 1004.90 1005.26 1005.88 1006.66 1007.49 1008.31 1009.07 1009.77 1010.41 1011.04 1011.67 1012.32 1012.97 1013.60 1014.16 1014.62 1014.96 1015.16 1015.25 1015.26 1015.25 1015.24 1015.29 1015.41
1008.07 1007.65 1007.33 1007.25 1007.48 1008.04 1008.88 1009.90 1010.92 1011.76 1012.27 1012.32 1011.87 1010.97 1009.72 1008.29 1006.86 1005.63 1004.72 1004.22 1004.13 1004.41 1004.98 1005.73 1006.56 1007.38 1008.16 1008.89 1009.59 1010.27 1010.97 1011.68 1012.40 1013.09 1013.70 1014.21 1014.58 1014.80 1014.90 1014.92 1014.91 1014.91 1014.97 1015.10
1007.65 1007.27 1007.03 1007.03 1007.37 1008.03 1008.97 1010.07 1011.13 1011.99 1012.48 1012.49 1011.98 1011.00 1009.66 1008.13 1006.61 1005.28 1004.28 1003.68 1003.50 1003.70 1004.20 1004.89 1005.67 1006.46 1007.24 1007.98 1008.71 1009.44 1010.19 1010.97 1011.74 1012.49 1013.15 1013.70 1014.10 1014.34 1014.46 1014.48 1014.48 1014.49 1014.57 1014.72
1007.24 1006.95 1006.81 1006.93 1007.35 1008.08 1009.06 1010.16 1011.21 1012.03 1012.47 1012.43 1011.88 1010.86 1009.49 1007.94 1006.39 1005.03 1003.99 1003.33 1003.08 1003.20 1003.61 1004.22 1004.92 1005.67 1006.41 1007.15 1007.88 1008.64 1009.43 1010.25 1011.07 1011.86 1012.56 1013.13 1013.55 1013.82 1013.95 1013.99 1013.99 1014.02 1014.11 1014.29
1006.82 1006.66 1006.65 1006.87 1007.36 1008.12 1009.08 1010.13 1011.10 1011.84 1012.20 1012.11 1011.54 1010.54 1009.21 1007.71 1006.23 1004.91 1003.88 1003.22 1002.92 1002.97 1003.30 1003.81 1004.43 1005.10 1005.79 1006.49 1007.22 1007.98 1008.78 1009.62 1010.47 1011.27 1011.99 1012.58 1013.01 1013.28 1013.42 1013.48 1013.50 1013.55 1013.67 1013.87
1006.39 1006.39 1006.52 1006.83 1007.36 1008.10 1008.98 1009.92 1010.76 1011.39 1011.67 1011.54 1010.98 1010.05 1008.83 1007.47 1006.11 1004.91 1003.96 1003.33 1003.03 1003.04 1003.29 1003.71 1004.24 1004.83 1005.46 1006.12 1006.82 1007.56 1008.36 1009.20 1010.04 1010.83 1011.53 1012.11 1012.53 1012.80 1012.95 1013.02 1013.06 1013.14 1013.28 1013.52
1005.98 1006.14 1006.39 1006.77 1007.30 1007.97 1008.75 1009.53 1010.22 1010.71 1010.91 1010.75 1010.24 1009.41 1008.36 1007.18 1006.02 1004.99 1004.17 1003.63 1003.36 1003.34 1003.54 1003.90 1004.35 1004.88 1005.45 1006.06 1006.73 1007.45 1008.22 1009.03 1009.83 1010.58 1011.24 1011.78 1012.17 1012.42 1012.56 1012.65 1012.72 1012.83 1013.02 1013.30
1005.63 1005.93 1006.28 1006.69 1007.19 1007.77 1008.39 1009.00 1009.51 1009.86 1009.96 1009.80 1009.35 1008.66 1007.79 1006.84 1005.90 1005.08 1004.43 1003.99 1003.79 1003.79 1003.97 1004.29 1004.70 1005.18 1005.71 1006.30 1006.93 1007.63 1008.36 1009.11 1009.85 1010.53 1011.12 1011.59 1011.94 1012.16 1012.29 1012.39 1012.49 1012.65 1012.89 1013.23
1005.42 1005.82 1006.22 1006.62 1007.05 1007.50 1007.95 1008.36 1008.69 1008.89 1008.91 1008.73 1008.35 1007.80 1007.13 1006.41 1005.71 1005.09 1004.62 1004.32 1004.20 1004.25 1004.44 1004.75 1005.15 1005.62 1006.14 1006.72 1007.35 1008.01 1008.71 1009.40 1010.06 1010.66 1011.16 1011.55 1011.83 1012.01 1012.14 1012.24 1012.39 1012.60 1012.90 1013.30
1005.41 1005.85 1006.25 1006.61 1006.93 1007.22 1007.47 1007.68 1007.83 1007.88 1007.81 1007.62 1007.30 1006.88 1006.39 1005.88 1005.39 1004.98 1004.68 1004.51 1004.48 1004.59 1004.82 1005.15 1005.57 1006.06 1006.60 1007.20 1007.84 1008.50 1009.16 1009.80 1010.38 1010.89 1011.30 1011.60 1011.81 1011.95 1012.07 1012.19 1012.37 1012.64 1013.01 1013.48
1005.63 1006.06 1006.41 1006.67 1006.85 1006.96 1007.02 1007.03 1006.99 1006.90 1006.75 1006.54 1006.27 1005.95 1005.61 1005.27 1004.96 1004.71 1004.55 1004.49 1004.55 1004.71 1004.99 1005.37 1005.83 1006.36 1006.96 1007.60 1008.27 1008.94 1009.59 1010.19 1010.72 1011.15 1011.47 1011.70 1011.86 1011.96 1012.07 1012.22 1012.44 1012.77 1013.20 1013.73
1006.09 1006.45 1006.69 1006.82 1006.83 1006.76 1006.63 1006.45 1006.24 1006.03 1005.80 1005.56 1005.33 1005.09 1004.85 1004.64 1004.46 1004.33 1004.27 1004.29 1004.41 1004.62 1004.94 1005.36 1005.87 1006.47 1007.12 1007.82 1008.54 1009.24 1009.90 1010.49 1010.98 1011.36 1011.64 1011.82 1011.93 1012.02 1012.14 1012.31 1012.58 1012.96 1013.45 1014.03
1006.74 1006.98 1007.08 1007.04 1006.89 1006.64 1006.34 1006.00 1005.66 1005.34 1005.05 1004.80 1004.58 1004.39 1004.23 1004.10 1004.00 1003.95 1003.94 1004.01 1004.15 1004.39 1004.73 1005.18 1005.73 1006.37 1007.08 1007.84 1008.61 1009.35 1010.04 1010.64 1011.13 1011.50 1011.76 1011.94 1012.05 1012.16 1012.29 1012.51 1012.82 1013.24 1013.77 1014.39
1007.49 1007.57 1007.51 1007.32 1007.01 1006.61 1006.16 1005.71 1005.28 1004.90 1004.58 1004.32 1004.13 1003.98 1003.88 1003.80 1003.75 1003.72 1003.74 1003.81 1003.94 1004.17 1004.50 1004.94 1005.50 1006.16 1006.90 1007.70 1008.51 1009.31 1010.03 1010.67 1011.19 1011.59 1011.88 1012.09 1012.24 1012.39 1012.58 1012.84 1013.20 1013.66 1014.22 1014.84
1008.22 1008.14 1007.93 1007.59 1007.16 1006.66 1006.13 1005.61 1005.15 1004.75 1004.44 1004.21 1004.06 1003.96 1003.89 1003.85 1003.83 1003.82 1003.82 1003.87 1003.97 1004.15 1004.44 1004.84 1005.36 1006.00 1006.74 1007.54 1008.37 1009.19 1009.96 1010.64 1011.22 1011.68 1012.04 1012.32 1012.56 1012.78 1013.04 1013.36 1013.77 1014.26 1014.82 1015.43
1008.84 1008.62 1008.28 1007.84 1007.33 1006.78 1006.23 1005.72 1005.28 1004.93 1004.67 1004.50 1004.40 1004.36 1004.35 1004.35 1004.35 1004.34 1004.33 1004.34 1004.39 1004.50 1004.71 1005.04 1005.48 1006.05 1006.73 1007.49 1008.31 1009.13 1009.92 1010.65 1011.30 1011.85 1012.31 1012.70 1013.04 1013.37 1013.72 1014.11 1014.56 1015.07 1015.63 1016.21
1009.26 1008.93 1008.51 1008.03 1007.51 1006.97 1006.47 1006.03 1005.67 1005.41 1005.24 1005.17 1005.16 1005.20 1005.25 1005.30 1005.33 1005.33 1005.31 1005.28 1005.27 1005.31 1005.43 1005.65 1005.99 1006.45 1007.03 1007.71 1008.46 1009.25 1010.04 1010.81 1011.52 1012.16 1012.73 1013.24 1013.71 1014.16 1014.61 1015.07 1015.57 1016.09 1016.63 1017.17
1009.45 1009.06 1008.62 1008.16 1007.68 1007.23 1006.84 1006.51 1006.28 1006.14 1006.10 1006.14 1006.24 1006.37 1006.50 1006.61 1006.69 1006.71 1006.70 1006.65 1006.60 1006.57 1006.60 1006.70 1006.92 1007.25 1007.70 1008.26 1008.92 1009.64 1010.41 1011.18 1011.93 1012.65 1013.33 1013.97 1014.56 1015.12 1015.67 1016.21 1016.75 1017.28 1017.80 1018.29
1009.41 1009.02 1008.62 1008.23 1007.86 1007.54 1007.29 1007.12 1007.04 1007.05 1007.15 1007.31 1007.51 1007.74 1007.95 1008.14 1008.27 1008.35 1008.36 1008.32 1008.26 1008.18 1008.14 1008.14 1008.24 1008.43 1008.74 1009.17 1009.71 1010.34 1011.04 1011.79 1012.57 1013.34 1014.10 1014.84 1015.54 1016.21 1016.84 1017.45 1018.01 1018.55 1019.04 1019.47
1009.19 1008.85 1008.54 1008.27 1008.04 1007.89 1007.80 1007.80 1007.87 1008.03 1008.24 1008.51 1008.81 1009.13 1009.42 1009.68 1009.89 1010.02 1010.09 1010.10 1010.05 1009.97 1009.88 1009.83 1009.83 1009.90 1010.08 1010.38 1010.79 1011.31 1011.93 1012.63 1013.39 1014.19 1015.00 1015.80 1016.58 1017.32 1018.02 1018.66 1019.25 1019.78 1020.23 1020.62
1008.87 1008.62 1008.42 1008.29 1008.23 1008.24 1008.32 1008.47 1008.69 1008.95 1009.27 1009.62 1009.99 1010.36 1010.72 1011.05 1011.32 1011.54 1011.68 1011.75 1011.76 1011.72 1011.64 1011.57 1011.51 1011.51 1011.59 1011.77 1012.07 1012.48 1013.01 1013.64 1014.35 1015.13 1015.95 1016.77 1017.59 1018.37 1019.10 1019.76 1020.35 1020.86 1021.29 1021.63
Thickness
5819 5811 5811 5826 5838 5843 5848 5844 5844 5859 5875 5861 5850 5846 5853 5860 5857 5853 5848 5843 5837 5837 5839 5838 5833 5829 5823 5817 5810 5804 5800 5796 5792 5788 5783 5780 5778 5779 5779 5778 5777 5773 5771 5769
5805 5804 5826 5841 5845 5843 5842 5837 5844 5859 5871 5857 5847 5844 5855 5859 5856 5857 5853 5847 5843 5839 5838 5835 5832 5828 5823 5816 5811 5806 5802 5798 5793 5790 5787 5784 5782 5781 5780 5780 5777 5774 5771 5770
5799 5819 5835 5832 5832 5830 5833 5835 5842 5847 5857 5856 5843 5833 5843 5854 5860 5861 5861 5856 5852 5846 5838 5834 5831 5828 5825 5819 5813 5810 5805 5800 5795 5793 5788 5786 5782 5780 5779 5777 5776 5775 5773 5771
5805 5826 5829 5823 5825 5829 5821 5845 5849 5847 5833 5828 5835 5812 5831 5841 5844 5851 5855 5857 5854 5852 5845 5839 5834 5830 5826 5823 5819 5814 5808 5803 5798 5794 5789 5784 5779 5775 5776 5777 5776 5775 5774 5772
5803 5818 5819 5816 5826 5833 5831 5848 5845 5842 5832 5823 5830 5817 5828 5841 5831 5842 5853 5858 5859 5856 5852 5844 5839 5834 5831 5828 5822 5817 5810 5804 5800 5796 5791 5786 5783 5780 5779 5778 5776 5774 5774 5772
5810 5827 5827 5825 5835 5838 5839 5837 5834 5832 5825 5800 5816 5814 5816 5837 5837 5845 5855 5860 5861 5860 5856 5850 5846 5839 5834 5831 5826 5820 5811 5806 5802 5797 5793 5788 5784 5781 5778 5775 5773 5772 5772 5772
5790 5809 5825 5829 5818 5826 5827 5809 5789 5783 5785 5792 5823 5819 5825 5847 5855 5854 5854 5859 5863 5862 5857 5851 5845 5839 5834 5831 5827 5822 5813 5806 5803 5798 5794 5791 5787 5783 5779 5776 5773 5771 5770 5770
5772 5780 5809 5819 5814 5812 5814 5810 5785 5772 5779 5796 5819 5814 5837 5861 5865 5864 5863 5862 5862 5860 5857 5852 5847 5842 5837 5832 5827 5822 5814 5807 5803 5799 5794 5792 5788 5784 5781 5778 5776 5773 5772 5772
5780 5783 5814 5821 5825 5821 5807 5808 5822 5807 5806 5799 5812 5826 5842 5857 5854 5855 5855 5855 5856 5857 5855 5852 5849 5844 5839 5833 5828 5823 5815 5808 5804 5800 5796 5792 5789 5785 5782 5779 5777 5775 5773 5773
5798 5784 5804 5815 5818 5820 5823 5817 5810 5799 5782 5781 5800 5811 5819 5830 5837 5843 5844 5848 5850 5852 5851 5850 5846 5842 5838 5834 5829 5824 5817 5809 5804 5800 5796 5793 5789 5786 5783 5780 5777 5775 5774 5773
5797 5784 5793 5800 5793 5797 5805 5807 5807 5804 5803 5788 5783 5799 5842 5841 5842 5841 5843 5847 5847 5847 5847 5844 5841 5841 5837 5832 5827 5820 5814 5809 5803 5799 5796 5793 5790 5787 5783 5780 5778 5776 5774 5773
5793 5788 5782 5790 5808 5817 5811 5808 5806 5786 5788 5798 5789 5794 5845 5847 5847 5846 5844 5844 5845 5844 5843 5841 5837 5834 5831 5826 5822 5816 5812 5807 5803 5799 5795 5792 5789 5786 5782 5779 5777 5776 5774 5773
5786 5778 5764 5768 5782 5797 5800 5808 5811 5808 5800 5793 5786 5791 5836 5841 5839 5842 5840 5838 5837 5836 5834 5832 5829 5825 5823 5820 5816 5813 5809 5805 5802 5797 5793 5789 5786 5783 5780 5778 5776 5774 5772 5770
5786 5771 5767 5763 5774 5787 5787 5798 5808 5804 5790 5792 5797 5801 5818 5825 5827 5829 5831 5831 5829 5827 5824 5821 5818 5816 5815 5814 5810 5807 5805 5802 5799 5794 5789 5785 5782 5780 5778 5776 5774 5771 5769 5766
5775 5761 5770 5783 5798 5799 5794 5795 5802 5801 5804 5799 5806 5808 5813 5821 5823 5824 5825 5824 5821 5817 5814 5812 5809 5807 5807 5805 5804 5802 5799 5797 5794 5789 5784 5780 5779 5777 5774 5771 5769 5766 5764 5762
5764 5757 5765 5770 5790 5797 5794 5798 5802 5804 5807 5808 5811 5810 5825 5826 5824 5818 5818 5816 5810 5808 5806 5805 5803 5800 5799 5798 5797 5795 5792 5790 5788 5783 5779 5777 5775 5772 5769 5765 5763 5760 5758 5756
5753 5747 5749 5756 5779 5784 5774 5793 5798 5801 5810 5809 5800 5807 5817 5812 5810 5809 5811 5809 5803 5801 5799 5797 5795 5792 5792 5792 5792 5788 5786 5784 5781 5777 5774 5771 5769 5766 5763 5761 5757 5754 5751 5749
5745 5742 5746 5751 5758 5743 5780 5811 5809 5803 5806 5811 5810 5812 5811 5806 5807 5810 5809 5803 5798 5796 5793 5791 5789 5787 5788 5788 5786 5784 5782 5779 5775 5771 5768 5766 5763 5760 5757 5754 5750 5747 5745 5743
5748 5738 5738 5741 5741 5752 5777 5797 5801 5792 5791 5807 5803 5804 5805 5806 5799 5795 5801 5799 5794 5791 5788 5787 5786 5784 5782 5781 5780 5778 5775 5772 5768 5764 5761 5759 5757 5753 5750 5747 5744 5741 5738 5736
5742 5740 5731 5733 5730 5733 5762 5793 5806 5794 5771 5798 5799 5795 5795 5795 5777 5775 5789 5789 5786 5785 5783 5782 5781 5778 5774 5773 5772 5768 5765 5761 5758 5756 5754 5753 5751 5748 5744 5741 5738 5735 5732 5729
5722 5723 5724 5726 5727 5740 5769 5788 5792 5759 5758 5789 5793 5789 5788 5784 5780 5777 5779 5779 5777 5776 5775 5774 5772 5768 5765 5765 5763 5758 5755 5751 5751 5750 5748 5745 5743 5741 5738 5735 5732 5728 5725 5721
5719 5719 5721 5724 5718 5723 5763 5771 5762 5759 5777 5783 5784 5785 5781 5777 5775 5772 5769 5767 5767 5766 5765 5764 5761 5758 5757 5756 5753 5747 5744 5743 5743 5741 5738 5735 5734 5733 5730 5726 5723 5720 5717 5713
5724 5727 5731 5730 5726 5741 5754 5755 5760 5770 5768 5770 5773 5774 5772 5768 5763 5761 5760 5759 5758 5757 5756 5755 5752 5748 5747 5746 5743 5737 5735 5735 5733 5730 5727 5725 5723 5721 5719 5717 5714 5711 5708 5705
5722 5734 5729 5723 5728 5738 5744 5749 5755 5760 5760 5764 5765 5764 5763 5758 5755 5752 5750 5748 5747 5747 5746 5745 5742 5738 5735 5734 5733 5730 5728 5727 5724 5720 5717 5714 5712 5709 5706 5704 5702 5699 5696 5695
5712 5719 5717 5712 5718 5726 5730 5737 5745 5750 5753 5753 5754 5754 5753 5750 5746 5743 5740 5738 5738 5737 5736 5735 5731 5728 5725 5724 5723 5721 5720 5717 5714 5710 5707 5704 5700 5696 5691 5687 5683 5682 5678 5679
5704 5705 5704 5702 5713 5715 5717 5730 5738 5738 5739 5742 5742 5742 5743 5741 5737 5734 5731 5730 5729 5727 5726 5723 5721 5718 5716 5715 5713 5711 5710 5708 5704 5700 5697 5694 5691 5686 5682 5677 5670 5665 5666 5665